Hauptseite
METAR-TAF:

METAR-TAF

Flughäfen :

Manassas Regional Airport (Harry P. Davis Field)

Manassas, Virginia, Vereinigte Staaten

Breite: 38-43N, Länge: 077-31W, Höhe: 59 m

Beobachtung

Neuester Wetterbericht von vor 28 Minuten, um 04:56 UTC
Windstille
Temperatur -6°C
Luftfeuchtigkeit 86%
Luftdruck 1018 hPa
Sichtweite: 16.1 km
Himmel klar

METAR: KHEF 210456Z AUTO 00000KT 10SM CLR M06/M08 A3007 RMK AO2 SLP190 T10611078 FZRANO

Zeit: 00:24 (05:24 UTC)


TAF: fehlend

Wetterbeobachtungen und Prognosen von mehr als 4000 Flughäfen (METAR und TAF Bericht).

Die verfügbaren Stationen werden durch gelbe und rote Markierungen auf der Karte dargestellt.

Führen Sie die Maus auf sie, um den Namen der Station zu sehen.

Darauf klicken, um die Beobachtung von Wetterbeobachtungen und Prognosen zu sehen.

Um die Karte zu ändern : klicken Sie auf den grünen Tasten mit einem schwarzen Kreuz Zum Vergrößern, auf den grünen Button mit einem Gedankenstrich zu verkleinern, oder auf die grünen Pfeile für benachbarte Karten.


METAR-TAF: